Time,TemperatureF,DewpointF,PressureIn,WindDirection,WindDirectionDegrees,WindSpeedMPH,WindSpeedGustMPH,Humidity,HourlyPrecipIn,Conditions,Clouds,dailyrainin,SoftwareType,DateUTC
2013-02-02 00:00:00,33.3,19.3,30.46,North,358,7.0,10.0,56,0.00,,---,0.00,VWS V14.00,2013-02-02 05:00:00,
2013-02-02 00:01:00,33.3,18.9,30.46,North,0,5.0,8.0,55,0.00,,---,0.00,VWS V14.00,2013-02-02 05:01:00,
2013-02-02 00:06:00,33.2,18.8,30.46,North,356,6.0,9.0,55,0.00,,---,0.00,VWS V14.00,2013-02-02 05:06:00,
2013-02-02 00:11:00,33.1,19.1,30.47,North,356,8.0,9.0,56,0.00,,---,0.00,VWS V14.00,2013-02-02 05:11:00,
2013-02-02 00:16:00,33.1,18.7,30.47,North,355,9.0,10.0,55,0.00,,---,0.00,VWS V14.00,2013-02-02 05:16:00,
2013-02-02 00:21:00,32.9,18.9,30.46,North,352,7.0,10.0,56,0.00,,---,0.00,VWS V14.00,2013-02-02 05:21:00,
2013-02-02 00:26:00,32.8,18.8,30.47,North,0,6.0,10.0,56,0.00,,---,0.00,VWS V14.00,2013-02-02 05:26:00,
2013-02-02 00:31:00,32.7,18.3,30.46,North,0,5.0,8.0,55,0.00,,---,0.00,VWS V14.00,2013-02-02 05:31:00,
2013-02-02 00:36:00,32.6,18.7,30.46,North,359,5.0,8.0,56,0.00,,---,0.00,VWS V14.00,2013-02-02 05:36:00,
2013-02-02 00:41:00,32.5,18.6,30.46,North,352,8.0,8.0,56,0.00,,---,0.00,VWS V14.00,2013-02-02 05:41:00,
2013-02-02 00:46:00,32.6,19.5,30.47,North,0,5.0,8.0,58,0.00,,---,0.00,VWS V14.00,2013-02-02 05:46:00,
2013-02-02 00:51:00,32.6,19.1,30.47,North,0,5.0,9.0,57,0.00,,---,0.00,VWS V14.00,2013-02-02 05:51:00,
2013-02-02 00:56:00,32.6,19.1,30.47,North,0,5.0,9.0,57,0.00,,---,0.00,VWS V14.00,2013-02-02 05:56:00,
2013-02-02 01:01:00,32.5,19.0,30.47,North,4,6.0,7.0,57,0.00,,---,0.00,VWS V14.00,2013-02-02 06:01:00,
2013-02-02 01:06:00,32.5,18.6,30.47,North,355,7.0,8.0,56,0.00,,---,0.00,VWS V14.00,2013-02-02 06:06:00,
2013-02-02 01:11:00,32.4,18.5,30.47,North,1,6.0,8.0,56,0.00,,---,0.00,VWS V14.00,2013-02-02 06:11:00,
2013-02-02 01:16:00,32.4,18.9,30.47,North,0,6.0,8.0,57,0.00,,---,0.00,VWS V14.00,2013-02-02 06:16:00,
2013-02-02 01:21:00,32.4,19.3,30.47,North,0,6.0,8.0,58,0.00,,---,0.00,VWS V14.00,2013-02-02 06:21:00,
2013-02-02 01:26:00,32.4,19.7,30.47,North,0,6.0,8.0,59,0.00,,---,0.00,VWS V14.00,2013-02-02 06:26:00,
2013-02-02 01:31:00,32.3,19.6,30.47,North,1,7.0,7.0,59,0.00,,---,0.00,VWS V14.00,2013-02-02 06:31:00,
2013-02-02 01:36:00,32.3,20.0,30.47,North,0,6.0,8.0,60,0.00,,---,0.00,VWS V14.00,2013-02-02 06:36:00,
2013-02-02 01:41:00,32.3,20.4,30.47,North,0,8.0,8.0,61,0.00,,---,0.00,VWS V14.00,2013-02-02 06:41:00,
2013-02-02 01:46:00,32.3,20.0,30.47,NNE,21,5.0,9.0,60,0.00,,---,0.00,VWS V14.00,2013-02-02 06:46:00,
2013-02-02 01:51:00,32.2,19.5,30.47,NNE,23,8.0,9.0,59,0.00,,---,0.00,VWS V14.00,2013-02-02 06:51:00,
2013-02-02 01:56:00,32.1,19.0,30.47,NNE,27,6.0,9.0,58,0.00,,---,0.00,VWS V14.00,2013-02-02 06:56:00,
2013-02-02 02:01:00,32.0,18.9,30.46,NNE,28,7.0,8.0,58,0.00,,---,0.00,VWS V14.00,2013-02-02 07:01:00,
2013-02-02 02:06:00,31.9,18.8,30.47,NNE,27,7.0,10.0,58,0.00,,---,0.00,VWS V14.00,2013-02-02 07:06:00,
2013-02-02 02:11:00,31.8,18.7,30.47,NNE,31,8.0,10.0,58,0.00,,---,0.00,VWS V14.00,2013-02-02 07:11:00,
2013-02-02 02:16:00,31.7,18.6,30.47,NNE,27,7.0,10.0,58,0.00,,---,0.00,VWS V14.00,2013-02-02 07:16:00,
2013-02-02 02:21:00,31.6,18.9,30.47,NNE,16,7.0,10.0,59,0.00,,---,0.00,VWS V14.00,2013-02-02 07:21:00,
2013-02-02 02:26:00,31.6,19.3,30.46,NE,37,7.0,10.0,60,0.00,,---,0.00,VWS V14.00,2013-02-02 07:26:00,
2013-02-02 02:31:00,31.5,19.2,30.46,NNE,28,6.0,9.0,60,0.00,,---,0.00,VWS V14.00,2013-02-02 07:31:00,
2013-02-02 02:36:00,31.4,18.7,30.46,NNE,30,4.0,9.0,59,0.00,,---,0.00,VWS V14.00,2013-02-02 07:36:00,
2013-02-02 02:41:00,31.3,18.2,30.47,NNE,20,6.0,10.0,58,0.00,,---,0.00,VWS V14.00,2013-02-02 07:41:00,
2013-02-02 02:46:00,31.3,18.2,30.47,NNE,24,6.0,10.0,58,0.00,,---,0.00,VWS V14.00,2013-02-02 07:46:00,
2013-02-02 02:51:00,31.2,18.2,30.46,NNE,21,5.0,10.0,58,0.00,,---,0.00,VWS V14.00,2013-02-02 07:51:00,
2013-02-02 02:56:00,31.2,18.2,30.46,NNE,16,5.0,10.0,58,0.00,,---,0.00,VWS V14.00,2013-02-02 07:56:00,
2013-02-02 03:01:00,31.2,17.3,30.46,NE,34,8.0,8.0,56,0.00,,---,0.00,VWS V14.00,2013-02-02 08:01:00,
2013-02-02 03:06:00,31.1,17.2,30.46,NNE,31,7.0,9.0,56,0.00,,---,0.00,VWS V14.00,2013-02-02 08:06:00,
2013-02-02 03:11:00,31.1,17.7,30.47,NE,37,7.0,10.0,57,0.00,,---,0.00,VWS V14.00,2013-02-02 08:11:00,
2013-02-02 03:16:00,31.1,17.7,30.47,North,8,4.0,10.0,57,0.00,,---,0.00,VWS V14.00,2013-02-02 08:16:00,
2013-02-02 03:21:00,31.0,18.0,30.47,NNE,20,6.0,10.0,58,0.00,,---,0.00,VWS V14.00,2013-02-02 08:21:00,
2013-02-02 03:26:00,31.0,18.4,30.47,NNE,31,4.0,10.0,59,0.00,,---,0.00,VWS V14.00,2013-02-02 08:26:00,
2013-02-02 03:31:00,31.0,18.8,30.47,NNE,23,6.0,7.0,60,0.00,,---,0.00,VWS V14.00,2013-02-02 08:31:00,
2013-02-02 03:36:00,31.0,19.1,30.46,NNE,27,8.0,8.0,61,0.00,,---,0.00,VWS V14.00,2013-02-02 08:36:00,
2013-02-02 03:41:00,30.9,19.0,30.46,NE,34,4.0,8.0,61,0.00,,---,0.00,VWS V14.00,2013-02-02 08:41:00,
2013-02-02 03:46:00,31.0,19.1,30.46,NE,36,5.0,9.0,61,0.00,,---,0.00,VWS V14.00,2013-02-02 08:46:00,
2013-02-02 03:51:00,31.0,19.1,30.46,NE,41,3.0,9.0,61,0.00,,---,0.00,VWS V14.00,2013-02-02 08:51:00,
2013-02-02 03:56:00,30.9,19.0,30.46,NE,39,5.0,9.0,61,0.00,,---,0.00,VWS V14.00,2013-02-02 08:56:00,
2013-02-02 04:01:00,30.9,18.7,30.46,NNE,20,8.0,9.0,60,0.00,,---,0.00,VWS V14.00,2013-02-02 09:01:00,
2013-02-02 04:06:00,30.8,18.6,30.46,NNE,28,6.0,9.0,60,0.00,,---,0.00,VWS V14.00,2013-02-02 09:06:00,
2013-02-02 04:11:00,30.8,18.6,30.46,NNE,21,8.0,10.0,60,0.00,,---,0.00,VWS V14.00,2013-02-02 09:11:00,
2013-02-02 04:16:00,30.7,18.9,30.46,NNE,31,6.0,10.0,61,0.00,,---,0.00,VWS V14.00,2013-02-02 09:16:00,
2013-02-02 04:21:00,30.7,18.1,30.46,NNE,25,7.0,10.0,59,0.00,,---,0.00,VWS V14.00,2013-02-02 09:21:00,
2013-02-02 04:26:00,30.6,18.4,30.46,NNE,16,6.0,10.0,60,0.00,,---,0.00,VWS V14.00,2013-02-02 09:26:00,
2013-02-02 04:31:00,30.5,18.7,30.46,NNE,24,5.0,8.0,61,0.00,,---,0.00,VWS V14.00,2013-02-02 09:31:00,
2013-02-02 04:36:00,30.5,19.4,30.47,North,8,6.0,9.0,63,0.00,,---,0.00,VWS V14.00,2013-02-02 09:36:00,
2013-02-02 04:41:00,30.5,18.7,30.47,NNE,25,7.0,10.0,61,0.00,,---,0.00,VWS V14.00,2013-02-02 09:41:00,
2013-02-02 04:46:00,30.5,18.7,30.47,NNE,14,8.0,11.0,61,0.00,,---,0.00,VWS V14.00,2013-02-02 09:46:00,
2013-02-02 04:51:00,30.4,18.6,30.47,North,9,7.0,11.0,61,0.00,,---,0.00,VWS V14.00,2013-02-02 09:51:00,
2013-02-02 04:56:00,30.4,19.0,30.47,NNE,13,8.0,11.0,62,0.00,,---,0.00,VWS V14.00,2013-02-02 09:56:00,
2013-02-02 05:01:00,30.3,18.1,30.47,NNE,15,7.0,10.0,60,0.00,,---,0.00,VWS V14.00,2013-02-02 10:01:00,
2013-02-02 05:06:00,30.3,18.1,30.47,North,4,9.0,11.0,60,0.00,,---,0.00,VWS V14.00,2013-02-02 10:06:00,
2013-02-02 05:11:00,30.2,18.4,30.47,North,9,7.0,11.0,61,0.00,,---,0.00,VWS V14.00,2013-02-02 10:11:00,
2013-02-02 05:16:00,30.2,18.0,30.48,North,9,5.0,11.0,60,0.00,,---,0.00,VWS V14.00,2013-02-02 10:16:00,
2013-02-02 05:21:00,30.1,17.9,30.48,North,6,7.0,11.0,60,0.00,,---,0.00,VWS V14.00,2013-02-02 10:21:00,
2013-02-02 05:26:00,30.2,18.4,30.48,North,11,6.0,11.0,61,0.00,,---,0.00,VWS V14.00,2013-02-02 10:26:00,
2013-02-02 05:31:00,30.1,18.3,30.48,NNE,19,6.0,9.0,61,0.00,,---,0.00,VWS V14.00,2013-02-02 10:31:00,
2013-02-02 05:36:00,30.0,17.4,30.48,NE,34,8.0,9.0,59,0.00,,---,0.00,VWS V14.00,2013-02-02 10:36:00,
2013-02-02 05:41:00,29.9,17.3,30.48,NNE,25,7.0,10.0,59,0.00,,---,0.00,VWS V14.00,2013-02-02 10:41:00,
2013-02-02 05:46:00,29.8,17.2,30.48,North,7,7.0,10.0,59,0.00,,---,0.00,VWS V14.00,2013-02-02 10:46:00,
2013-02-02 05:51:00,29.8,18.0,30.48,North,11,7.0,10.0,61,0.00,,---,0.00,VWS V14.00,2013-02-02 10:51:00,
2013-02-02 05:56:00,29.8,17.2,30.48,NNE,28,4.0,10.0,59,0.00,,---,0.00,VWS V14.00,2013-02-02 10:56:00,
2013-02-02 06:01:00,29.6,16.2,30.48,NE,44,4.0,8.0,57,0.00,,---,0.00,VWS V14.00,2013-02-02 11:01:00,
2013-02-02 06:06:00,29.5,16.2,30.48,NNE,22,9.0,9.0,57,0.00,,---,0.00,VWS V14.00,2013-02-02 11:06:00,
2013-02-02 06:11:00,29.5,16.6,30.48,NNE,25,6.0,9.0,58,0.00,,---,0.00,VWS V14.00,2013-02-02 11:11:00,
2013-02-02 06:16:00,29.5,17.0,30.48,NNE,32,6.0,9.0,59,0.00,,---,0.00,VWS V14.00,2013-02-02 11:16:00,
2013-02-02 06:21:00,29.4,16.5,30.49,NNE,17,7.0,9.0,58,0.00,,---,0.00,VWS V14.00,2013-02-02 11:21:00,
2013-02-02 06:26:00,29.3,15.6,30.49,NNE,22,7.0,10.0,56,0.00,,---,0.00,VWS V14.00,2013-02-02 11:26:00,
2013-02-02 06:31:00,29.3,16.0,30.49,NNE,30,6.0,8.0,57,0.00,,---,0.00,VWS V14.00,2013-02-02 11:31:00,
2013-02-02 06:36:00,29.2,16.3,30.48,North,7,7.0,10.0,58,0.00,,---,0.00,VWS V14.00,2013-02-02 11:36:00,
2013-02-02 06:41:00,29.2,15.5,30.49,NNE,30,6.0,10.0,56,0.00,,---,0.00,VWS V14.00,2013-02-02 11:41:00,
2013-02-02 06:46:00,29.1,15.4,30.48,NNE,23,7.0,10.0,56,0.00,,---,0.00,VWS V14.00,2013-02-02 11:46:00,
2013-02-02 06:51:00,29.0,15.7,30.48,NNE,22,8.0,10.0,57,0.00,,---,0.00,VWS V14.00,2013-02-02 11:51:00,
2013-02-02 06:56:00,29.0,16.1,30.48,NNE,29,6.0,10.0,58,0.00,,---,0.00,VWS V14.00,2013-02-02 11:56:00,
2013-02-02 07:01:00,29.0,16.1,30.48,NNE,22,6.0,7.0,58,0.00,,---,0.00,VWS V14.00,2013-02-02 12:01:00,
2013-02-02 07:06:00,29.0,15.7,30.48,NNE,31,7.0,9.0,57,0.00,,---,0.00,VWS V14.00,2013-02-02 12:06:00,
2013-02-02 07:11:00,28.9,15.6,30.48,NNE,24,7.0,9.0,57,0.00,,---,0.00,VWS V14.00,2013-02-02 12:11:00,
2013-02-02 07:16:00,28.9,15.6,30.49,North,9,7.0,9.0,57,0.00,,---,0.00,VWS V14.00,2013-02-02 12:16:00,
2013-02-02 07:21:00,28.9,16.4,30.49,North,4,5.0,9.0,59,0.00,,---,0.00,VWS V14.00,2013-02-02 12:21:00,
2013-02-02 07:26:00,28.9,16.4,30.49,NNE,16,7.0,9.0,59,0.00,,---,0.00,VWS V14.00,2013-02-02 12:26:00,
2013-02-02 07:31:00,28.9,16.4,30.49,NNE,20,6.0,8.0,59,0.00,,---,0.00,VWS V14.00,2013-02-02 12:31:00,
2013-02-02 07:36:00,28.9,16.4,30.50,North,9,7.0,9.0,59,0.00,,---,0.00,VWS V14.00,2013-02-02 12:36:00,
2013-02-02 07:41:00,28.9,16.8,30.50,NNE,22,7.0,9.0,60,0.00,,---,0.00,VWS V14.00,2013-02-02 12:41:00,
2013-02-02 07:46:00,29.0,17.6,30.50,NNE,14,5.0,9.0,62,0.00,,---,0.00,VWS V14.00,2013-02-02 12:46:00,
2013-02-02 07:51:00,29.0,16.5,30.50,NNE,18,4.0,9.0,59,0.00,,---,0.00,VWS V14.00,2013-02-02 12:51:00,
2013-02-02 07:56:00,29.1,17.0,30.50,NNE,18,4.0,9.0,60,0.00,,---,0.00,VWS V14.00,2013-02-02 12:56:00,
2013-02-02 08:01:00,29.1,17.3,30.50,North,4,5.0,6.0,61,0.00,,---,0.00,VWS V14.00,2013-02-02 13:01:00,
2013-02-02 08:06:00,29.2,17.1,30.50,NNE,33,3.0,6.0,60,0.00,,---,0.00,VWS V14.00,2013-02-02 13:06:00,
2013-02-02 08:11:00,29.2,17.1,30.50,North,352,5.0,8.0,60,0.00,,---,0.00,VWS V14.00,2013-02-02 13:11:00,
2013-02-02 08:16:00,29.3,17.5,30.50,North,0,0.0,8.0,61,0.00,,---,0.00,VWS V14.00,2013-02-02 13:16:00,
2013-02-02 08:21:00,29.3,16.8,30.50,NNE,28,3.0,8.0,59,0.00,,---,0.00,VWS V14.00,2013-02-02 13:21:00,
2013-02-02 08:26:00,29.4,16.9,30.50,NNE,30,2.0,8.0,59,0.00,,---,0.00,VWS V14.00,2013-02-02 13:26:00,
2013-02-02 08:31:00,29.5,17.0,30.50,NNE,30,2.0,4.0,59,0.00,,---,0.00,VWS V14.00,2013-02-02 13:31:00,
2013-02-02 08:36:00,29.6,17.8,30.50,NE,46,1.0,4.0,61,0.00,,---,0.00,VWS V14.00,2013-02-02 13:36:00,
2013-02-02 08:41:00,29.7,17.1,30.50,NE,45,2.0,4.0,59,0.00,,---,0.00,VWS V14.00,2013-02-02 13:41:00,
2013-02-02 08:46:00,29.8,17.2,30.50,NNE,33,1.0,6.0,59,0.00,,---,0.00,VWS V14.00,2013-02-02 13:46:00,
2013-02-02 08:51:00,29.8,17.6,30.50,NNE,31,1.0,6.0,60,0.00,,---,0.00,VWS V14.00,2013-02-02 13:51:00,
2013-02-02 08:56:00,29.9,17.3,30.50,NNE,31,2.0,6.0,59,0.00,,---,0.00,VWS V14.00,2013-02-02 13:56:00,
2013-02-02 09:01:00,30.0,17.4,30.50,NE,55,0.0,2.0,59,0.00,,---,0.00,VWS V14.00,2013-02-02 14:01:00,
2013-02-02 09:06:00,30.1,17.9,30.50,NE,56,1.0,4.0,60,0.00,,---,0.00,VWS V14.00,2013-02-02 14:06:00,
2013-02-02 09:11:00,30.3,18.1,30.50,NE,52,0.0,4.0,60,0.00,,---,0.00,VWS V14.00,2013-02-02 14:11:00,
2013-02-02 09:16:00,30.4,18.6,30.50,NE,52,1.0,4.0,61,0.00,,---,0.00,VWS V14.00,2013-02-02 14:16:00,
2013-02-02 09:21:00,30.5,18.3,30.50,NE,40,0.0,6.0,60,0.00,,---,0.00,VWS V14.00,2013-02-02 14:21:00,
2013-02-02 09:26:00,30.7,18.5,30.50,ENE,57,1.0,6.0,60,0.00,,---,0.00,VWS V14.00,2013-02-02 14:26:00,
2013-02-02 09:31:00,30.8,18.6,30.50,ENE,60,2.0,4.0,60,0.00,,---,0.00,VWS V14.00,2013-02-02 14:31:00,
2013-02-02 09:36:00,31.0,18.8,30.49,ENE,72,0.0,5.0,60,0.00,,---,0.00,VWS V14.00,2013-02-02 14:36:00,
2013-02-02 09:41:00,31.1,19.2,30.49,ESE,108,1.0,5.0,61,0.00,,---,0.00,VWS V14.00,2013-02-02 14:41:00,
2013-02-02 09:46:00,31.3,19.8,30.49,ESE,111,1.0,5.0,62,0.00,,---,0.00,VWS V14.00,2013-02-02 14:46:00,
2013-02-02 09:51:00,31.4,19.5,30.49,ESE,112,0.0,5.0,61,0.00,,---,0.00,VWS V14.00,2013-02-02 14:51:00,
2013-02-02 09:56:00,31.5,19.2,30.49,ESE,112,0.0,5.0,60,0.00,,---,0.00,VWS V14.00,2013-02-02 14:56:00,
2013-02-02 10:01:00,31.6,19.7,30.49,ESE,112,0.0,1.0,61,0.00,,---,0.00,VWS V14.00,2013-02-02 15:01:00,
2013-02-02 10:06:00,31.7,19.4,30.49,ESE,117,0.0,2.0,60,0.00,,---,0.00,VWS V14.00,2013-02-02 15:06:00,
2013-02-02 10:11:00,31.7,19.4,30.49,ESE,113,0.0,2.0,60,0.00,,---,0.00,VWS V14.00,2013-02-02 15:11:00,
2013-02-02 10:16:00,31.8,19.5,30.49,ESE,111,0.0,2.0,60,0.00,,---,0.00,VWS V14.00,2013-02-02 15:16:00,
2013-02-02 10:21:00,31.9,19.6,30.49,ESE,112,0.0,2.0,60,0.00,,---,0.00,VWS V14.00,2013-02-02 15:21:00,
2013-02-02 10:26:00,32.0,19.3,30.49,ESE,112,0.0,2.0,59,0.00,,---,0.00,VWS V14.00,2013-02-02 15:26:00,
2013-02-02 10:31:00,32.0,18.5,30.49,ESE,112,0.0,0.0,57,0.00,,---,0.00,VWS V14.00,2013-02-02 15:31:00,
2013-02-02 10:36:00,32.0,18.1,30.48,ESE,112,0.0,0.0,56,0.00,,---,0.00,VWS V14.00,2013-02-02 15:36:00,
2013-02-02 10:41:00,32.1,18.2,30.49,South,169,0.0,1.0,56,0.00,,---,0.00,VWS V14.00,2013-02-02 15:41:00,
2013-02-02 10:46:00,32.2,17.0,30.48,South,169,0.0,1.0,53,0.00,,---,0.00,VWS V14.00,2013-02-02 15:46:00,
2013-02-02 10:51:00,32.2,17.0,30.48,South,170,0.0,1.0,53,0.00,,---,0.00,VWS V14.00,2013-02-02 15:51:00,
2013-02-02 10:56:00,32.2,17.4,30.48,South,170,0.0,1.0,54,0.00,,---,0.00,VWS V14.00,2013-02-02 15:56:00,
2013-02-02 11:01:00,32.3,17.1,30.47,South,170,0.0,0.0,53,0.00,,---,0.00,VWS V14.00,2013-02-02 16:01:00,
2013-02-02 11:06:00,32.5,17.3,30.47,South,170,0.0,0.0,53,0.00,,---,0.00,VWS V14.00,2013-02-02 16:06:00,
2013-02-02 11:11:00,32.6,17.4,30.47,South,170,0.0,0.0,53,0.00,,---,0.00,VWS V14.00,2013-02-02 16:11:00,
2013-02-02 11:16:00,33.0,17.8,30.46,South,170,0.0,0.0,53,0.00,,---,0.00,VWS V14.00,2013-02-02 16:16:00,
2013-02-02 11:21:00,33.1,18.7,30.46,South,170,0.0,0.0,55,0.00,,---,0.00,VWS V14.00,2013-02-02 16:21:00,
2013-02-02 11:26:00,33.3,19.3,30.46,West,276,0.0,0.0,56,0.00,,---,0.00,VWS V14.00,2013-02-02 16:26:00,
2013-02-02 11:31:00,33.3,20.1,30.45,West,276,0.0,0.0,58,0.00,,---,0.00,VWS V14.00,2013-02-02 16:31:00,
2013-02-02 11:36:00,33.4,20.2,30.45,West,277,0.0,0.0,58,0.00,,---,0.00,VWS V14.00,2013-02-02 16:36:00,
2013-02-02 11:41:00,33.6,20.8,30.45,West,277,0.0,0.0,59,0.00,,---,0.00,VWS V14.00,2013-02-02 16:41:00,
2013-02-02 11:46:00,33.8,21.0,30.44,West,276,0.0,0.0,59,0.00,,---,0.00,VWS V14.00,2013-02-02 16:46:00,
2013-02-02 11:51:00,34.3,23.0,30.44,West,260,0.0,3.0,63,0.00,,---,0.00,VWS V14.00,2013-02-02 16:51:00,
2013-02-02 11:56:00,35.0,24.1,30.44,SSW,213,0.0,3.0,64,0.00,,---,0.00,VWS V14.00,2013-02-02 16:56:00,
2013-02-02 12:01:00,35.6,24.3,30.43,SW,219,1.0,5.0,63,0.00,,---,0.00,VWS V14.00,2013-02-02 17:01:00,
2013-02-02 12:06:00,36.2,24.1,30.43,SW,220,0.0,5.0,61,0.00,,---,0.00,VWS V14.00,2013-02-02 17:06:00,
2013-02-02 12:11:00,36.2,24.1,30.42,SSW,193,1.0,5.0,61,0.00,,---,0.00,VWS V14.00,2013-02-02 17:11:00,
2013-02-02 12:16:00,36.9,24.3,30.42,SSW,195,0.0,5.0,60,0.00,,---,0.00,VWS V14.00,2013-02-02 17:16:00,
2013-02-02 12:21:00,37.3,23.9,30.42,SSW,201,1.0,5.0,58,0.00,,---,0.00,VWS V14.00,2013-02-02 17:21:00,
2013-02-02 12:26:00,37.7,23.4,30.42,SSW,196,4.0,7.0,56,0.00,,---,0.00,VWS V14.00,2013-02-02 17:26:00,
2013-02-02 12:31:00,37.8,24.0,30.41,South,191,4.0,4.0,57,0.00,,---,0.00,VWS V14.00,2013-02-02 17:31:00,
2013-02-02 12:36:00,38.2,24.3,30.40,SSW,210,4.0,6.0,57,0.00,,---,0.00,VWS V14.00,2013-02-02 17:36:00,
2013-02-02 12:41:00,38.5,24.2,30.40,SSW,198,0.0,6.0,56,0.00,,---,0.00,VWS V14.00,2013-02-02 17:41:00,
2013-02-02 12:46:00,38.7,23.9,30.40,SSW,197,0.0,6.0,55,0.00,,---,0.00,VWS V14.00,2013-02-02 17:46:00,
2013-02-02 12:51:00,39.0,23.8,30.39,SSW,205,0.0,6.0,54,0.00,,---,0.00,VWS V14.00,2013-02-02 17:51:00,
2013-02-02 12:56:00,39.1,23.4,30.39,SSW,211,0.0,6.0,53,0.00,,---,0.00,VWS V14.00,2013-02-02 17:56:00,
2013-02-02 13:01:00,39.5,23.4,30.38,WSW,250,1.0,5.0,52,0.00,,---,0.00,VWS V14.00,2013-02-02 18:01:00,
2013-02-02 13:06:00,39.4,21.8,30.37,WSW,250,0.0,5.0,49,0.00,,---,0.00,VWS V14.00,2013-02-02 18:06:00,
2013-02-02 13:11:00,39.2,22.1,30.37,WSW,250,0.0,5.0,50,0.00,,---,0.00,VWS V14.00,2013-02-02 18:11:00,
2013-02-02 13:16:00,39.1,22.5,30.37,WSW,237,0.0,5.0,51,0.00,,---,0.00,VWS V14.00,2013-02-02 18:16:00,
2013-02-02 13:21:00,39.6,23.4,30.37,SSW,206,4.0,5.0,52,0.00,,---,0.00,VWS V14.00,2013-02-02 18:21:00,
2013-02-02 13:26:00,40.4,23.7,30.36,SSW,199,1.0,6.0,51,0.00,,---,0.00,VWS V14.00,2013-02-02 18:26:00,
2013-02-02 13:31:00,40.8,22.6,30.36,South,189,4.0,5.0,48,0.00,,---,0.00,VWS V14.00,2013-02-02 18:31:00,
2013-02-02 13:36:00,41.0,23.3,30.36,SSW,192,2.0,6.0,49,0.00,,---,0.00,VWS V14.00,2013-02-02 18:36:00,
2013-02-02 13:41:00,41.1,22.9,30.35,South,179,2.0,8.0,48,0.00,,---,0.00,VWS V14.00,2013-02-02 18:41:00,
2013-02-02 13:46:00,41.1,22.4,30.35,South,191,1.0,8.0,47,0.00,,---,0.00,VWS V14.00,2013-02-02 18:46:00,
2013-02-02 13:51:00,41.4,23.7,30.35,SSW,198,0.0,8.0,49,0.00,,---,0.00,VWS V14.00,2013-02-02 18:51:00,
2013-02-02 13:56:00,41.5,24.3,30.34,SSW,193,0.0,8.0,50,0.00,,---,0.00,VWS V14.00,2013-02-02 18:56:00,
2013-02-02 14:01:00,41.8,24.5,30.34,South,191,4.0,5.0,50,0.00,,---,0.00,VWS V14.00,2013-02-02 19:01:00,
2013-02-02 14:06:00,42.0,25.2,30.33,SW,224,2.0,6.0,51,0.00,,---,0.00,VWS V14.00,2013-02-02 19:06:00,
2013-02-02 14:11:00,42.4,25.6,30.33,SSW,195,0.0,7.0,51,0.00,,---,0.00,VWS V14.00,2013-02-02 19:11:00,
2013-02-02 14:16:00,42.5,26.6,30.33,SSW,205,1.0,7.0,53,0.00,,---,0.00,VWS V14.00,2013-02-02 19:16:00,
2013-02-02 14:21:00,42.5,26.1,30.32,SSE,166,0.0,8.0,52,0.00,,---,0.00,VWS V14.00,2013-02-02 19:21:00,
2013-02-02 14:26:00,42.5,26.6,30.32,SSE,153,1.0,8.0,53,0.00,,---,0.00,VWS V14.00,2013-02-02 19:26:00,
2013-02-02 14:31:00,42.5,27.5,30.32,SSE,165,0.0,1.0,55,0.00,,---,0.00,VWS V14.00,2013-02-02 19:31:00,
2013-02-02 14:36:00,42.6,27.6,30.32,South,172,1.0,1.0,55,0.00,,---,0.00,VWS V14.00,2013-02-02 19:36:00,
2013-02-02 14:41:00,42.7,28.1,30.31,SSW,206,4.0,5.0,56,0.00,,---,0.00,VWS V14.00,2013-02-02 19:41:00,
2013-02-02 14:46:00,42.9,27.9,30.31,SSW,198,0.0,6.0,55,0.00,,---,0.00,VWS V14.00,2013-02-02 19:46:00,
2013-02-02 14:51:00,43.0,28.8,30.31,SW,214,1.0,6.0,57,0.00,,---,0.00,VWS V14.00,2013-02-02 19:51:00,
2013-02-02 14:56:00,43.4,28.8,30.31,SSW,213,1.0,6.0,56,0.00,,---,0.00,VWS V14.00,2013-02-02 19:56:00,
2013-02-02 15:01:00,43.5,28.9,30.30,SSW,195,0.0,1.0,56,0.00,,---,0.00,VWS V14.00,2013-02-02 20:01:00,
2013-02-02 15:06:00,43.5,28.4,30.30,SSW,196,0.0,1.0,55,0.00,,---,0.00,VWS V14.00,2013-02-02 20:06:00,
2013-02-02 15:11:00,43.6,29.0,30.30,SSW,196,0.0,1.0,56,0.00,,---,0.00,VWS V14.00,2013-02-02 20:11:00,
2013-02-02 15:16:00,43.7,28.2,30.30,SSW,196,0.0,1.0,54,0.00,,---,0.00,VWS V14.00,2013-02-02 20:16:00,
2013-02-02 15:21:00,43.4,28.3,30.29,SSW,196,0.0,1.0,55,0.00,,---,0.00,VWS V14.00,2013-02-02 20:21:00,
2013-02-02 15:26:00,43.4,28.3,30.29,SSW,198,0.0,1.0,55,0.00,,---,0.00,VWS V14.00,2013-02-02 20:26:00,
2013-02-02 15:31:00,43.5,28.4,30.29,NW,321,0.0,1.0,55,0.00,,---,0.00,VWS V14.00,2013-02-02 20:31:00,
2013-02-02 15:36:00,43.6,29.4,30.28,NW,321,0.0,1.0,57,0.00,,---,0.00,VWS V14.00,2013-02-02 20:36:00,
2013-02-02 15:41:00,43.9,30.1,30.28,NW,318,0.0,1.0,58,0.00,,---,0.00,VWS V14.00,2013-02-02 20:41:00,
2013-02-02 15:46:00,44.0,29.8,30.28,SSW,192,0.0,1.0,57,0.00,,---,0.00,VWS V14.00,2013-02-02 20:46:00,
2013-02-02 15:51:00,44.0,29.8,30.28,SSW,195,0.0,1.0,57,0.00,,---,0.00,VWS V14.00,2013-02-02 20:51:00,
2013-02-02 15:56:00,44.1,29.9,30.27,SSW,192,0.0,5.0,57,0.00,,---,0.00,VWS V14.00,2013-02-02 20:56:00,
2013-02-02 16:01:00,44.1,30.3,30.27,SSW,207,0.0,1.0,58,0.00,,---,0.00,VWS V14.00,2013-02-02 21:01:00,
2013-02-02 16:06:00,44.1,30.7,30.27,SSW,206,0.0,6.0,59,0.00,,---,0.00,VWS V14.00,2013-02-02 21:06:00,
2013-02-02 16:11:00,44.1,30.7,30.27,South,187,0.0,6.0,59,0.00,,---,0.00,VWS V14.00,2013-02-02 21:11:00,
2013-02-02 16:16:00,44.1,30.7,30.26,SSW,200,1.0,7.0,59,0.00,,---,0.00,VWS V14.00,2013-02-02 21:16:00,
2013-02-02 16:21:00,43.9,30.5,30.26,SSE,158,6.0,8.0,59,0.00,,---,0.00,VWS V14.00,2013-02-02 21:21:00,
2013-02-02 16:26:00,43.9,30.9,30.26,SSW,194,0.0,8.0,60,0.00,,---,0.00,VWS V14.00,2013-02-02 21:26:00,
2013-02-02 16:31:00,43.9,31.3,30.26,SSW,196,0.0,1.0,61,0.00,,---,0.00,VWS V14.00,2013-02-02 21:31:00,
2013-02-02 16:36:00,43.9,31.7,30.26,SSW,210,3.0,7.0,62,0.00,,---,0.00,VWS V14.00,2013-02-02 21:36:00,
2013-02-02 16:41:00,43.9,31.7,30.26,SSW,205,0.0,7.0,62,0.00,,---,0.00,VWS V14.00,2013-02-02 21:41:00,
2013-02-02 16:46:00,43.8,32.0,30.26,SSW,197,0.0,7.0,63,0.00,,---,0.00,VWS V14.00,2013-02-02 21:46:00,
2013-02-02 16:51:00,43.8,32.4,30.25,South,190,0.0,7.0,64,0.00,,---,0.00,VWS V14.00,2013-02-02 21:51:00,
2013-02-02 16:56:00,43.8,32.0,30.25,SSW,197,0.0,7.0,63,0.00,,---,0.00,VWS V14.00,2013-02-02 21:56:00,
2013-02-02 17:01:00,43.6,32.2,30.25,SSW,198,1.0,1.0,64,0.00,,---,0.00,VWS V14.00,2013-02-02 22:01:00,
2013-02-02 17:06:00,43.6,32.2,30.24,SSE,159,0.0,4.0,64,0.00,,---,0.00,VWS V14.00,2013-02-02 22:06:00,
2013-02-02 17:11:00,43.4,32.4,30.25,South,173,2.0,8.0,65,0.00,,---,0.00,VWS V14.00,2013-02-02 22:11:00,
2013-02-02 17:16:00,43.4,32.8,30.24,SSW,198,2.0,8.0,66,0.00,,---,0.00,VWS V14.00,2013-02-02 22:16:00,
2013-02-02 17:21:00,43.3,32.7,30.24,South,182,1.0,8.0,66,0.00,,---,0.00,VWS V14.00,2013-02-02 22:21:00,
2013-02-02 17:26:00,43.2,32.6,30.24,SSW,202,0.0,8.0,66,0.00,,---,0.00,VWS V14.00,2013-02-02 22:26:00,
2013-02-02 17:31:00,43.0,32.4,30.24,SSE,154,0.0,1.0,66,0.00,,---,0.00,VWS V14.00,2013-02-02 22:31:00,
2013-02-02 17:36:00,42.9,33.1,30.24,South,184,0.0,1.0,68,0.00,,---,0.00,VWS V14.00,2013-02-02 22:36:00,
2013-02-02 17:41:00,42.8,33.3,30.23,SSW,193,0.0,1.0,69,0.00,,---,0.00,VWS V14.00,2013-02-02 22:41:00,
2013-02-02 17:46:00,42.7,33.2,30.24,SSW,198,0.0,4.0,69,0.00,,---,0.00,VWS V14.00,2013-02-02 22:46:00,
2013-02-02 17:51:00,42.7,34.0,30.24,SSW,198,0.0,4.0,71,0.00,,---,0.00,VWS V14.00,2013-02-02 22:51:00,
2013-02-02 17:56:00,42.5,33.4,30.23,SSW,198,0.0,4.0,70,0.00,,---,0.00,VWS V14.00,2013-02-02 22:56:00,
2013-02-02 18:01:00,42.4,34.0,30.24,SSW,198,0.0,0.0,72,0.00,,---,0.00,VWS V14.00,2013-02-02 23:01:00,
2013-02-02 18:06:00,42.4,33.7,30.23,SSW,198,0.0,0.0,71,0.00,,---,0.00,VWS V14.00,2013-02-02 23:06:00,
2013-02-02 18:11:00,42.2,33.8,30.23,SSW,197,0.0,0.0,72,0.00,,---,0.00,VWS V14.00,2013-02-02 23:11:00,
2013-02-02 18:16:00,42.1,33.7,30.23,SSW,198,0.0,0.0,72,0.00,,---,0.00,VWS V14.00,2013-02-02 23:16:00,
2013-02-02 18:20:00,41.9,33.9,30.23,SSW,198,0.0,0.0,73,0.00,,---,0.00,VWS V14.00,2013-02-02 23:20:00,
2013-02-02 18:26:00,41.8,33.8,30.23,SSW,198,0.0,0.0,73,0.00,,---,0.00,VWS V14.00,2013-02-02 23:26:00,
2013-02-02 18:30:00,41.6,33.6,30.23,SSW,198,0.0,0.0,73,0.00,,---,0.00,VWS V14.00,2013-02-02 23:30:00,
2013-02-02 18:35:00,41.5,33.5,30.22,SSW,198,0.0,0.0,73,0.00,,---,0.00,VWS V14.00,2013-02-02 23:35:00,
2013-02-02 18:41:00,41.4,33.8,30.23,SSW,198,0.0,0.0,74,0.00,,---,0.00,VWS V14.00,2013-02-02 23:41:00,
2013-02-02 18:46:00,41.3,34.3,30.22,SSW,198,0.0,0.0,76,0.00,,---,0.00,VWS V14.00,2013-02-02 23:46:00,
2013-02-02 18:51:00,41.2,33.9,30.22,SSW,198,0.0,0.0,75,0.00,,---,0.00,VWS V14.00,2013-02-02 23:51:00,
2013-02-02 18:56:00,41.2,33.5,30.22,SSW,198,0.0,0.0,74,0.00,,---,0.00,VWS V14.00,2013-02-02 23:56:00,
2013-02-02 19:00:00,41.1,34.5,30.21,SSW,197,0.0,0.0,77,0.00,,---,0.00,VWS V14.00,2013-02-03 00:00:00,
2013-02-02 19:05:00,41.0,34.7,30.21,SSW,197,0.0,0.0,78,0.00,,---,0.00,VWS V14.00,2013-02-03 00:05:00,
2013-02-02 19:10:00,41.1,35.1,30.22,SSW,197,0.0,0.0,79,0.00,,---,0.00,VWS V14.00,2013-02-03 00:10:00,
2013-02-02 19:15:00,41.0,34.7,30.22,SSW,197,0.0,0.0,78,0.00,,---,0.00,VWS V14.00,2013-02-03 00:15:00,
2013-02-02 19:20:00,40.8,34.5,30.21,SSW,197,0.0,0.0,78,0.00,,---,0.00,VWS V14.00,2013-02-03 00:20:00,
2013-02-02 19:25:00,40.8,34.2,30.21,SSW,197,0.0,0.0,77,0.00,,---,0.00,VWS V14.00,2013-02-03 00:25:00,
2013-02-02 19:30:00,40.8,35.7,30.20,SE,145,0.0,0.0,82,0.00,,---,0.00,VWS V14.00,2013-02-03 00:30:00,
2013-02-02 19:35:00,40.8,35.7,30.20,SSE,152,0.0,0.0,82,0.00,,---,0.00,VWS V14.00,2013-02-03 00:35:00,
2013-02-02 19:40:00,40.8,35.7,30.20,NW,311,3.0,6.0,82,0.00,,---,0.00,VWS V14.00,2013-02-03 00:40:00,
2013-02-02 19:45:00,40.8,36.0,30.19,NNW,328,0.0,6.0,83,0.00,,---,0.00,VWS V14.00,2013-02-03 00:45:00,
2013-02-02 19:50:00,40.9,35.8,30.19,NNW,328,0.0,6.0,82,0.00,,---,0.00,VWS V14.00,2013-02-03 00:50:00,
2013-02-02 19:55:00,40.9,36.8,30.19,NNW,328,0.0,6.0,85,0.00,,---,0.00,VWS V14.00,2013-02-03 00:55:00,
2013-02-02 20:00:00,40.9,36.1,30.19,NNW,328,0.0,0.0,83,0.00,,---,0.00,VWS V14.00,2013-02-03 01:00:00,
2013-02-02 20:05:00,40.7,36.0,30.19,NNW,328,0.0,0.0,83,0.00,,---,0.00,VWS V14.00,2013-02-03 01:05:00,
2013-02-02 20:10:00,40.8,36.3,30.19,NNW,328,0.0,0.0,84,0.00,,---,0.00,VWS V14.00,2013-02-03 01:10:00,
2013-02-02 20:15:00,40.8,36.7,30.19,NNW,340,0.0,1.0,85,0.00,,---,0.00,VWS V14.00,2013-02-03 01:15:00,
2013-02-02 20:20:00,40.9,37.0,30.18,NNW,340,0.0,1.0,86,0.00,,---,0.00,VWS V14.00,2013-02-03 01:20:00,
2013-02-02 20:25:00,40.9,37.0,30.18,NNW,342,0.0,1.0,86,0.00,,---,0.00,VWS V14.00,2013-02-03 01:25:00,
2013-02-02 20:30:00,40.9,37.0,30.17,NNW,342,0.0,0.0,86,0.00,,---,0.00,VWS V14.00,2013-02-03 01:30:00,
2013-02-02 20:35:00,40.9,36.8,30.17,NNW,342,0.0,0.0,85,0.00,,---,0.00,VWS V14.00,2013-02-03 01:35:00,
2013-02-02 20:40:00,40.8,36.7,30.17,NNW,342,0.0,0.0,85,0.00,,---,0.00,VWS V14.00,2013-02-03 01:40:00,
2013-02-02 20:45:00,40.8,36.3,30.16,NNW,342,0.0,0.0,84,0.00,,---,0.00,VWS V14.00,2013-02-03 01:45:00,
2013-02-02 20:50:00,40.8,36.9,30.16,NNW,342,0.0,0.0,86,0.00,,---,0.00,VWS V14.00,2013-02-03 01:50:00,
2013-02-02 20:55:00,40.8,36.3,30.15,NNW,342,0.0,0.0,84,0.00,,---,0.00,VWS V14.00,2013-02-03 01:55:00,
2013-02-02 21:00:00,40.7,36.2,30.16,NNW,342,0.0,0.0,84,0.00,,---,0.00,VWS V14.00,2013-02-03 02:00:00,
2013-02-02 21:05:00,40.6,36.5,30.15,NNW,342,0.0,0.0,85,0.00,,---,0.00,VWS V14.00,2013-02-03 02:05:00,
2013-02-02 21:10:00,40.6,36.8,30.15,NNW,342,0.0,0.0,86,0.00,,---,0.00,VWS V14.00,2013-02-03 02:10:00,
2013-02-02 21:15:00,40.5,36.3,30.15,NNW,342,0.0,0.0,85,0.00,,---,0.00,VWS V14.00,2013-02-03 02:15:00,
2013-02-02 21:20:00,40.5,36.3,30.14,NNW,342,0.0,0.0,85,0.00,,---,0.00,VWS V14.00,2013-02-03 02:20:00,
2013-02-02 21:25:00,40.5,36.7,30.14,NNW,342,0.0,0.0,86,0.00,,---,0.00,VWS V14.00,2013-02-03 02:25:00,
2013-02-02 21:30:00,40.5,36.7,30.14,NNW,342,0.0,0.0,86,0.00,,---,0.00,VWS V14.00,2013-02-03 02:30:00,
2013-02-02 21:35:00,40.4,37.1,30.14,NNW,342,0.0,0.0,88,0.00,,---,0.00,VWS V14.00,2013-02-03 02:35:00,
2013-02-02 21:40:00,40.5,37.2,30.14,NNW,342,0.0,0.0,88,0.00,,---,0.00,VWS V14.00,2013-02-03 02:40:00,
2013-02-02 21:45:00,40.4,37.1,30.14,NNW,342,0.0,0.0,88,0.00,,---,0.00,VWS V14.00,2013-02-03 02:45:00,
2013-02-02 21:50:00,40.4,37.1,30.13,NNW,342,0.0,0.0,88,0.00,,---,0.00,VWS V14.00,2013-02-03 02:50:00,
2013-02-02 21:55:00,40.4,37.1,30.13,NNW,342,0.0,0.0,88,0.00,,---,0.00,VWS V14.00,2013-02-03 02:55:00,
2013-02-02 22:00:00,40.3,36.8,30.13,NNW,342,0.0,0.0,87,0.00,,---,0.00,VWS V14.00,2013-02-03 03:00:00,
2013-02-02 22:05:00,40.3,37.0,30.13,NNW,342,0.0,0.0,88,0.00,,---,0.00,VWS V14.00,2013-02-03 03:05:00,
2013-02-02 22:10:00,40.3,37.3,30.13,NNW,342,0.0,0.0,89,0.00,,---,0.00,VWS V14.00,2013-02-03 03:10:00,
2013-02-02 22:15:00,40.4,38.0,30.12,NNW,342,0.0,0.0,91,0.00,,---,0.00,VWS V14.00,2013-02-03 03:15:00,
2013-02-02 22:20:00,40.5,38.1,30.12,NNW,342,0.0,0.0,91,0.00,,---,0.00,VWS V14.00,2013-02-03 03:20:00,
2013-02-02 22:25:00,40.4,37.7,30.12,NNW,342,0.0,0.0,90,0.00,,---,0.00,VWS V14.00,2013-02-03 03:25:00,
2013-02-02 22:30:00,40.4,38.0,30.12,NNW,342,0.0,0.0,91,0.00,,---,0.00,VWS V14.00,2013-02-03 03:30:00,
2013-02-02 22:35:00,40.4,37.7,30.12,NNW,342,0.0,0.0,90,0.00,,---,0.00,VWS V14.00,2013-02-03 03:35:00,
2013-02-02 22:40:00,40.4,38.0,30.12,NNW,342,0.0,0.0,91,0.00,,---,0.00,VWS V14.00,2013-02-03 03:40:00,
2013-02-02 22:45:00,40.4,38.3,30.12,NNW,342,0.0,0.0,92,0.00,,---,0.00,VWS V14.00,2013-02-03 03:45:00,
2013-02-02 22:50:00,40.5,38.4,30.12,NNW,342,0.0,0.0,92,0.00,,---,0.00,VWS V14.00,2013-02-03 03:50:00,
2013-02-02 22:55:00,40.7,39.1,30.12,NNW,342,0.0,0.0,94,0.00,,---,0.00,VWS V14.00,2013-02-03 03:55:00,
2013-02-02 23:00:00,40.8,39.2,30.12,NNW,342,0.0,0.0,94,0.00,,---,0.00,VWS V14.00,2013-02-03 04:00:00,
2013-02-02 23:05:00,41.0,39.7,30.12,NNW,342,0.0,0.0,95,0.00,,---,0.00,VWS V14.00,2013-02-03 04:05:00,
2013-02-02 23:10:00,41.1,39.8,30.11,NNW,342,0.0,0.0,95,0.00,,---,0.00,VWS V14.00,2013-02-03 04:10:00,
2013-02-02 23:15:00,41.2,40.2,30.12,NNW,342,0.0,0.0,96,0.00,,---,0.00,VWS V14.00,2013-02-03 04:15:00,
2013-02-02 23:20:00,41.3,40.5,30.11,NNW,338,0.0,0.0,97,0.00,,---,0.00,VWS V14.00,2013-02-03 04:20:00,
2013-02-02 23:25:00,41.7,41.2,30.11,NNW,335,0.0,4.0,98,0.00,,---,0.00,VWS V14.00,2013-02-03 04:25:00,
2013-02-02 23:30:00,41.9,41.6,30.11,WNW,287,2.0,3.0,99,0.00,,---,0.00,VWS V14.00,2013-02-03 04:30:00,
2013-02-02 23:35:00,42.8,42.8,30.11,West,271,4.0,8.0,100,0.00,,---,0.00,VWS V14.00,2013-02-03 04:35:00,
2013-02-02 23:40:00,44.2,44.2,30.11,West,265,11.0,13.0,100,0.00,,---,0.00,VWS V14.00,2013-02-03 04:40:00,
2013-02-02 23:45:00,45.8,45.8,30.11,West,261,8.0,13.0,100,0.00,,---,0.00,VWS V14.00,2013-02-03 04:45:00,
2013-02-02 23:50:00,46.8,46.8,30.11,West,267,8.0,13.0,100,0.00,,---,0.00,VWS V14.00,2013-02-03 04:50:00,
2013-02-02 23:55:00,47.5,46.7,30.10,West,261,10.0,14.0,97,0.00,,---,0.00,VWS V14.00,2013-02-03 04:55:00,